Weather History for KWLD - November, 2012

Change the Weather History Date:

Wednesday, November 28, 2012

  Actual Average (WUND) Record (WUND)
Temperature  
Mean Temperature 44 °F -  
Max Temperature 57 °F - - (-1)
Min Temperature 30 °F - - (-1)
Degree Days  
Heating Degree Days 22    
Moisture  
Dew Point 31 °F    
Average Humidity 62    
Maximum Humidity 82    
Minimum Humidity 40    
Precipitation  
Precipitation 0.00 in - - ()
Sea Level Pressure  
Sea Level Pressure 30.30 in    
Wind  
Wind Speed 6 mph (SE)    
Max Wind Speed 16 mph    
Max Gust Speed 22 mph    
Visibility 10 miles    
Events      
Averages and records for this station are not official NWS values.
T = Trace of Precipitation, MM = Missing Value Source: NWS Daily Summary

Daily Weather History Graph

Daily Weather History Graph

Search for Another Location

Airport or City:

Trip Planner

Search our weather history database for the weather conditions in past years. The results will help you decide how hot, cold, wet, or windy it might be!

Date:

Astronomy

Nov. 28, 2012 Rise Set
Actual Time 7:20 AM CST 5:11 PM CST
Civil Twilight 6:52 AM CST 5:40 PM CST
Nautical Twilight 6:20 AM CST 6:12 PM CST
Astronomical Twilight 5:48 AM CST 6:43 PM CST
Moon 5:27 PM CST (11/28) 7:19 AM CST (11/28)
Length of Visible Light 10h 47m
Length of Day
9h 50m
Full, 100% of the Moon is Illuminated
Nov 28
Full
Dec 6
Last Quarter
Dec 13
New
Dec 19
First Quarter
Dec 28
Full

Hourly Weather History & Observations

Time (CST) Temp. Windchill Dew Point Humidity Pressure Visibility Wind Dir Wind Speed Gust Speed Precip Events Conditions
12:54 AM 32.0 °F 28.7 °F 25.0 °F 75% 30.36 in 10.0 mi SSE 3.5 mph - N/A   Clear
1:54 AM 33.1 °F 30.0 °F 25.0 °F 72% 30.36 in 10.0 mi SSE 3.5 mph - N/A   Clear
2:54 AM 33.1 °F 30.0 °F 26.1 °F 75% 30.36 in 10.0 mi ESE 3.5 mph - N/A   Clear
3:54 AM 30.9 °F - 25.0 °F 79% 30.36 in 10.0 mi Calm Calm - N/A   Clear
4:54 AM 30.0 °F 25.2 °F 25.0 °F 82% 30.37 in 10.0 mi East 4.6 mph - N/A   Clear
5:54 AM 30.0 °F 26.5 °F 25.0 °F 82% 30.37 in 10.0 mi East 3.5 mph - N/A   Clear
6:54 AM 30.0 °F 25.2 °F 25.0 °F 82% 30.39 in 10.0 mi East 4.6 mph - N/A   Clear
7:54 AM 30.0 °F 25.2 °F 24.1 °F 79% 30.40 in 10.0 mi East 4.6 mph - N/A   Clear
8:54 AM 37.0 °F 32.4 °F 30.0 °F 76% 30.40 in 10.0 mi SE 5.8 mph - N/A   Clear
9:54 AM 45.0 °F 40.1 °F 33.1 °F 63% 30.40 in 10.0 mi South 9.2 mph - N/A   Clear
10:54 AM 50.0 °F - 33.1 °F 52% 30.39 in 10.0 mi South 12.7 mph - N/A   Clear
11:54 AM 54.0 °F - 34.0 °F 47% 30.36 in 10.0 mi South 10.4 mph - N/A   Clear
12:54 PM 55.9 °F - 33.1 °F 42% 30.32 in 10.0 mi South 13.8 mph - N/A   Clear
1:13 PM 57.2 °F - 33.8 °F 41% 30.29 in 3.0 mi South 12.7 mph 21.9 mph N/A   Haze
1:54 PM 57.0 °F - 33.1 °F 40% 30.28 in 10.0 mi SSE 16.1 mph - N/A   Clear
2:54 PM 57.0 °F - 33.1 °F 40% 30.25 in 10.0 mi SE 12.7 mph - N/A   Clear
3:54 PM 57.0 °F - 33.1 °F 40% 30.24 in 10.0 mi SE 11.5 mph - N/A   Clear
4:54 PM 54.0 °F - 33.1 °F 45% 30.22 in 10.0 mi SE 8.1 mph - N/A   Clear
5:54 PM 51.1 °F - 33.1 °F 50% 30.22 in 10.0 mi SE 6.9 mph - N/A   Clear
6:54 PM 48.0 °F - 33.1 °F 56% 30.23 in 10.0 mi SE 6.9 mph - N/A   Clear
7:54 PM 46.0 °F 42.5 °F 33.1 °F 61% 30.22 in 10.0 mi SE 6.9 mph - N/A   Clear
8:54 PM 46.0 °F 41.4 °F 35.1 °F 66% 30.20 in 10.0 mi SSE 9.2 mph - N/A   Clear
9:54 PM 46.0 °F 40.6 °F 35.1 °F 66% 30.18 in 10.0 mi SSE 11.5 mph - N/A   Clear
10:54 PM 45.0 °F 40.6 °F 35.1 °F 68% 30.17 in 10.0 mi SE 8.1 mph - N/A   Clear
11:54 PM 44.1 °F 40.1 °F 35.1 °F 71% 30.16 in 10.0 mi SE 6.9 mph - N/A   Clear